• In Uzbekistan
  • List of Countries
  • For 7 days
  • Water Temperature
  • Satellite Maps
  • Weather Map
  • Weather Widgets
  • user-avatar
    Login

    Hourly Weather Vitrolles

    Today, 21 November, Tuesday

    Time Temperature Precipitation Wind Pressure Humidity
    00:00 +7°C° 0 mm 4 mps 757 mmHg 43%
    01:00 +7°C° 0 mm 4 mps 757 mmHg 43%
    02:00 +7°C° 0 mm 4 mps 757 mmHg 43%
    03:00 +6°C° 0 mm 4 mps 757 mmHg 43%
    04:00 +6°C° 0 mm 4 mps 756 mmHg 44%
    05:00 +7°C° 0 mm 3 mps 756 mmHg 44%
    06:00 +7°C° 0 mm 3 mps 756 mmHg 44%
    07:00 +9°C° 0 mm 3 mps 756 mmHg 42%
    08:00 +10°C° 0 mm 3 mps 757 mmHg 39%
    09:00 +11°C° 0 mm 3 mps 757 mmHg 37%
    10:00 +13°C° 0 mm 3 mps 757 mmHg 35%
    11:00 +16°C° 0 mm 3 mps 756 mmHg 33%
    12:00 +17°C° 0 mm 2 mps 756 mmHg 31%
    13:00 +17°C° 0 mm 2 mps 756 mmHg 34%
    14:00 +17°C° 0 mm 2 mps 756 mmHg 36%
    15:00 +17°C° 0 mm 2 mps 756 mmHg 39%
    16:00 +15°C° 0 mm 2 mps 756 mmHg 44%
    17:00 +14°C° 0 mm 1 mps 756 mmHg 50%
    18:00 +12°C° 0 mm 1 mps 756 mmHg 55%
    19:00 +12°C° 0 mm 1 mps 756 mmHg 57%
    20:00 +11°C° 0 mm 1 mps 756 mmHg 59%
    21:00 +11°C° 0 mm 1 mps 757 mmHg 60%
    22:00 +11°C° 0 mm 1 mps 756 mmHg 61%
    23:00 +10°C° 0 mm 1 mps 756 mmHg 62%

    Tomorrow, 22 November, Wednesday

    Time Temperature Precipitation Wind Pressure Humidity
    00:00 +9°C° 0 mm 2 mps 756 mmHg 63%
    01:00 +9°C° 0 mm 2 mps 756 mmHg 63%
    02:00 +9°C° 0 mm 2 mps 756 mmHg 63%
    03:00 +9°C° 0 mm 2 mps 756 mmHg 64%
    04:00 +9°C° 0 mm 3 mps 756 mmHg 64%
    05:00 +8°C° 0 mm 3 mps 756 mmHg 63%
    06:00 +8°C° 0 mm 3 mps 756 mmHg 63%
    07:00 +10°C° 0 mm 3 mps 756 mmHg 59%
    08:00 +11°C° 0 mm 4 mps 756 mmHg 56%
    09:00 +12°C° 0 mm 4 mps 756 mmHg 52%
    10:00 +14°C° 0 mm 4 mps 756 mmHg 52%
    11:00 +15°C° 0 mm 4 mps 756 mmHg 51%
    12:00 +16°C° 0 mm 5 mps 755 mmHg 51%
    13:00 +16°C° 0 mm 5 mps 755 mmHg 56%
    14:00 +16°C° 0 mm 5 mps 755 mmHg 60%
    15:00 +16°C° 0 mm 5 mps 755 mmHg 64%
    16:00 +14°C° 0 mm 5 mps 755 mmHg 70%
    17:00 +13°C° 0 mm 4 mps 755 mmHg 77%
    18:00 +12°C° 0 mm 4 mps 755 mmHg 83%
    19:00 +12°C° 0 mm 4 mps 755 mmHg 84%
    20:00 +12°C° 0 mm 4 mps 756 mmHg 85%
    21:00 +12°C° 0 mm 5 mps 756 mmHg 87%
    22:00 +12°C° 0 mm 4 mps 756 mmHg 87%
    23:00 +11°C° 0 mm 4 mps 756 mmHg 87%

    Day after tomorrow, 23 November, Thursday

    Time Temperature Precipitation Wind Pressure Humidity
    00:00 +11°C° 0 mm 4 mps 756 mmHg 87%
    01:00 +11°C° 0 mm 4 mps 756 mmHg 87%
    02:00 +11°C° 0 mm 4 mps 756 mmHg 87%
    03:00 +11°C° 0 mm 4 mps 756 mmHg 87%
    04:00 +11°C° 0 mm 4 mps 756 mmHg 87%
    05:00 +10°C° 0 mm 4 mps 756 mmHg 87%
    06:00 +10°C° 0 mm 4 mps 756 mmHg 87%
    07:00 +11°C° 0 mm 4 mps 757 mmHg 83%
    08:00 +12°C° 0 mm 4 mps 757 mmHg 78%
    09:00 +13°C° 0 mm 4 mps 757 mmHg 74%
    10:00 +15°C° 0 mm 4 mps 757 mmHg 70%
    11:00 +17°C° 0 mm 4 mps 757 mmHg 65%
    12:00 +18°C° 0 mm 4 mps 757 mmHg 61%
    13:00 +18°C° 0 mm 4 mps 757 mmHg 62%
    14:00 +18°C° 0 mm 4 mps 757 mmHg 63%
    15:00 +18°C° 0 mm 4 mps 757 mmHg 65%
    16:00 +15°C° 0 mm 4 mps 757 mmHg 71%
    17:00 +14°C° 0 mm 3 mps 757 mmHg 77%
    18:00 +13°C° 0 mm 3 mps 758 mmHg 84%
    19:00 +12°C° 0 mm 4 mps 758 mmHg 85%
    20:00 +12°C° 0 mm 4 mps 758 mmHg 86%
    21:00 +12°C° 0 mm 4 mps 759 mmHg 87%
    22:00 +12°C° 0 mm 4 mps 759 mmHg 87%
    23:00 +12°C° 0 mm 4 mps 759 mmHg 88%

    24 November, Friday

    Time Temperature Precipitation Wind Pressure Humidity
    00:00 +11°C° 0 mm 4 mps 759 mmHg 88%
    01:00 +11°C° 0 mm 4 mps 759 mmHg 88%
    02:00 +11°C° 0 mm 4 mps 759 mmHg 88%
    03:00 +10°C° 0 mm 5 mps 759 mmHg 87%
    04:00 +10°C° 0 mm 5 mps 759 mmHg 87%
    05:00 +10°C° 0 mm 5 mps 759 mmHg 86%
    06:00 +10°C° 0 mm 5 mps 759 mmHg 86%
    07:00 +12°C° 0 mm 5 mps 759 mmHg 82%
    08:00 +13°C° 0 mm 5 mps 759 mmHg 79%
    09:00 +14°C° 0 mm 5 mps 760 mmHg 76%
    10:00 +15°C° 0 mm 5 mps 759 mmHg 72%
    11:00 +16°C° 0 mm 5 mps 759 mmHg 68%
    12:00 +17°C° 0 mm 5 mps 759 mmHg 64%
    13:00 +17°C° 0 mm 5 mps 759 mmHg 65%
    14:00 +17°C° 0 mm 5 mps 758 mmHg 66%
    15:00 +17°C° 0 mm 5 mps 758 mmHg 67%
    16:00 +16°C° 0 mm 5 mps 758 mmHg 72%
    17:00 +15°C° 0 mm 5 mps 758 mmHg 77%
    18:00 +13°C° 0 mm 5 mps 758 mmHg 82%
    19:00 +13°C° 0 mm 5 mps 759 mmHg 83%
    20:00 +13°C° 0 mm 5 mps 759 mmHg 83%
    21:00 +13°C° 0 mm 6 mps 759 mmHg 84%
    22:00 +13°C° 0 mm 6 mps 759 mmHg 84%
    23:00 +11°C° 0 mm 6 mps 758 mmHg 84%

    25 November, Saturday

    Time Temperature Precipitation Wind Pressure Humidity
    00:00 +11°C° 0 mm 6 mps 758 mmHg 84%
    01:00 +12°C° 0 mm 5 mps 758 mmHg 84%
    02:00 +12°C° 0 mm 5 mps 758 mmHg 84%
    03:00 +12°C° 0 mm 5 mps 758 mmHg 84%
    04:00 +12°C° 0 mm 5 mps 758 mmHg 83%
    05:00 +10°C° 0 mm 5 mps 758 mmHg 83%
    06:00 +10°C° 0 mm 5 mps 758 mmHg 82%
    07:00 +12°C° 0 mm 5 mps 758 mmHg 78%
    08:00 +13°C° 0 mm 5 mps 759 mmHg 74%
    09:00 +14°C° 0 mm 5 mps 759 mmHg 70%
    10:00 +15°C° 0 mm 5 mps 759 mmHg 65%
    11:00 +16°C° 0 mm 5 mps 759 mmHg 60%
    12:00 +17°C° 0 mm 5 mps 758 mmHg 55%
    13:00 +17°C° 0 mm 5 mps 758 mmHg 57%
    14:00 +17°C° 0 mm 4 mps 758 mmHg 59%
    15:00 +17°C° 0 mm 4 mps 758 mmHg 61%
    16:00 +16°C° 0 mm 3 mps 758 mmHg 66%
    17:00 +14°C° 0 mm 3 mps 759 mmHg 71%
    18:00 +13°C° 0 mm 3 mps 759 mmHg 76%
    19:00 +14°C° 0 mm 2 mps 759 mmHg 76%
    20:00 +13°C° 0 mm 2 mps 759 mmHg 77%
    21:00 +13°C° 0 mm 2 mps 759 mmHg 77%
    22:00 +13°C° 0 mm 2 mps 759 mmHg 76%
    23:00 +13°C° 0 mm 2 mps 759 mmHg 75%

    26 November, Sunday

    Time Temperature Precipitation Wind Pressure Humidity
    00:00 +13°C° 0 mm 2 mps 759 mmHg 74%
    01:00 +12°C° 0.1 mm 2 mps 759 mmHg 73%
    02:00 +12°C° 0.1 mm 2 mps 759 mmHg 71%
    03:00 +11°C° 0.1 mm 3 mps 759 mmHg 69%
    04:00 +11°C° 0 mm 3 mps 759 mmHg 68%
    05:00 +11°C° 0 mm 3 mps 759 mmHg 68%
    06:00 +11°C° 0 mm 3 mps 759 mmHg 67%
    07:00 +11°C° 0.1 mm 3 mps 759 mmHg 66%
    08:00 +11°C° 0.1 mm 4 mps 760 mmHg 65%
    09:00 +12°C° 0.1 mm 4 mps 760 mmHg 64%
    10:00 +12°C° 0.1 mm 4 mps 760 mmHg 63%
    11:00 +13°C° 0.1 mm 5 mps 760 mmHg 62%
    12:00 +13°C° 0.1 mm 5 mps 759 mmHg 61%
    13:00 +13°C° 0 mm 5 mps 759 mmHg 59%
    14:00 +13°C° 0 mm 6 mps 759 mmHg 57%
    15:00 +13°C° 0 mm 6 mps 759 mmHg 54%
    16:00 +10°C° 0 mm 7 mps 759 mmHg 56%
    17:00 +9°C° 0 mm 7 mps 760 mmHg 58%
    18:00 +7°C° 0 mm 8 mps 760 mmHg 59%
    19:00 +6°C° 0 mm 8 mps 760 mmHg 60%
    20:00 +5°C° 0 mm 8 mps 760 mmHg 61%
    21:00 +5°C° 0 mm 8 mps 761 mmHg 62%
    22:00 +3°C° 0 mm 9 mps 760 mmHg 61%
    23:00 +3°C° 0 mm 9 mps 760 mmHg 61%
    Show more